www.pogodaiklimat.ru

Погода и климат >> Архив погоды >> Австралия >> Kalumburu


ПОГОДА в Kalumburu

  • Прогноз погоды в Kalumburu
  • Монитор погоды в Kalumburu
  • Климат города

АРХИВ ПОГОДЫ в Kalumburu

Время (UTC), дата Ветер
(напр.,м/с)
 
Видим.   Явления Облачность Т
(С)
Тd
(С)
f
(%)
Тe
(С)
Тes
(С)
Комфортность P
(гПа)
Po
(гПа)
Тmin
(С)
Tmax
(С)
R
(мм)
R24
(мм)
S
(см)
10 17.01 ЮЗ 2 н/о н/о +25.2 +22.5 85 +33 +33 очень
душно
1004.7 1002.0
12 17.01 штиль 0 н/о н/о +25.1 +22.8 87 +33 +33 очень
душно
1006.2 1003.5
13 17.01 штиль 0 н/о {туман} н/о +25.0 +23.1 89 +33 +33 очень
душно
1007.1 1004.4 +34.4
15 17.01 В 1 н/о н/о +24.1 +22.2 89 +31 +31 очень
душно
1007.3 1004.6
16 17.01 ЮВ 2 н/о н/о +24.2 +21.9 87 +31 +31 очень
душно
1006.3 1003.6
18 17.01 ЮЗ 2 н/о н/о +24.1 +22.2 89 +31 +31 очень
душно
1004.7 1002.0
19 17.01 ЮВ 1 н/о н/о +23.8 +21.9 89 +31 +31 очень
душно
1004.1 1001.4
21 17.01 Ю 1 н/о н/о +23.0 +21.3 90 +31 +31 очень
душно
1004.6 1001.9
22 17.01 ЮВ 1 н/о н/о +23.9 +22.3 91 +31 +31 очень
душно
1005.7 1003.0
00 18.01 штиль 0 н/о н/о +27.0 +23.0 79 +36 +36 очень
душно
1007.4 1004.7
01 18.01 штиль 0 н/о н/о +28.5 +23.2 73 +38 +38 очень
душно
1007.4 1004.7 +22.7
03 18.01 З 2 н/о н/о +31.7 +23.0 60 +42 +42 опасность
перегрева
1005.9 1003.2
04 18.01 ЮЗ 2 н/о н/о +32.2 +21.4 53 +40 +40 очень
душно
1005.3 1002.6
06 18.01 СЗ 2 н/о н/о +33.2 +22.9 55 +43 +43 опасность
перегрева
1003.9 1001.2
07 18.01 СВ 3 н/о в посл. час дождь {туман} н/о +25.7 +23.4 87 +35 +35 очень
душно
1004.0 1001.3
09 18.01 СВ 3 н/о н/о +28.6 +23.5 74 +39 +39 очень
душно
1004.1 1001.4
10 18.01 СВ 2 н/о {туман} н/о +27.6 +23.6 79 +38 +38 очень
душно
1005.1 1002.4
12 18.01 СВ 1 н/о н/о +26.4 +23.3 83 +36 +36 очень
душно
1006.0 1003.3
13 18.01 СВ 2 н/о {туман} н/о +26.5 +23.0 81 +35 +35 очень
душно
1006.9 1004.2 +33.9
15 18.01 штиль 0 н/о н/о +25.6 +23.3 87 +34 +34 очень
душно
1006.7 1004.0
16 18.01 штиль 0 н/о н/о +25.2 +23.1 88 +34 +34 очень
душно
1006.2 1003.5
18 18.01 Ю 2 н/о н/о +25.6 +23.8 90 +35 +35 очень
душно
1005.6 1002.9
19 18.01 Ю 3 н/о н/о +26.0 +23.7 87 +35 +35 очень
душно
1005.7 1003.0
21 18.01 Ю 2 н/о н/о +23.2 +20.2 83 +30 +30 очень
душно
1005.6 1002.9
22 18.01 Ю 2 н/о н/о +23.6 +20.9 85 +30 +30 очень
душно
1006.0 1003.3
00 19.01 ЮЗ 2 н/о н/о +28.1 +21.4 67 +36 +36 очень
душно
1007.1 1004.4
01 19.01 Ю 3 н/о н/о +29.8 +23.5 69 +40 +40 очень
душно
1006.7 1004.0 +23.1
03 19.01 Ю 2 н/о н/о +32.2 +22.3 56 +41 +41 опасность
перегрева
1005.5 1002.8
04 19.01 В 1 н/о н/о +33.0 +22.4 54 +42 +42 опасность
перегрева
1005.2 1002.5
06 19.01 ЮЗ 2 н/о н/о +34.1 +21.5 48 +42 +42 опасность
перегрева
1002.9 1000.2
07 19.01 С 2 н/о н/о +34.1 +22.5 51 +43 +43 опасность
перегрева
1001.5 998.8
09 19.01 штиль 0 н/о н/о +27.9 +22.8 74 +37 +37 очень
душно
1003.4 1000.7
10 19.01 С 2 н/о н/о +27.8 +23.2 76 +37 +37 очень
душно
1003.8 1001.1
12 19.01 штиль 0 н/о н/о +27.1 +24.6 86 +38 +38 очень
душно
1005.6 1002.9
13 19.01 штиль 0 н/о н/о +27.2 +23.7 81 +37 +37 очень
душно
1006.2 1003.5 +34.9
15 19.01 Ю 1 н/о н/о +26.2 +22.7 81 +35 +35 очень
душно
1005.6 1002.9
16 19.01 Ю 2 н/о н/о +25.9 +23.0 84 +35 +35 очень
душно
1005.2 1002.5
18 19.01 ЮВ 2 н/о н/о +25.4 +22.9 86 +34 +34 очень
душно
1003.8 1001.1
19 19.01 Ю 1 н/о н/о +24.9 +22.2 85 +32 +32 очень
душно
1003.6 1000.9
21 19.01 Ю 2 н/о н/о +25.3 +23.0 87 +34 +34 очень
душно
1004.8 1002.1
22 19.01 штиль 0 н/о н/о +25.5 +23.4 88 +34 +34 очень
душно
1005.2 1002.5
00 20.01 штиль 0 н/о н/о +27.9 +23.9 79 +39 +39 очень
душно
1005.9 1003.2
01 20.01 штиль 0 н/о н/о +29.2 +24.1 74 +41 +41 опасность
перегрева
1005.6 1002.9 +24.5
03 20.01 СЗ 1 н/о н/о +31.7 +22.4 58 +41 +41 опасность
перегрева
1004.2 1001.5
04 20.01 С 4 н/о н/о +30.8 +24.0 67 +42 +42 опасность
перегрева
1003.9 1001.2
06 20.01 СЗ 3 н/о н/о +32.8 +23.4 58 +44 +44 опасность
перегрева
1001.9 999.2
07 20.01 СЗ 4 н/о н/о +33.3 +24.5 60 +46 +46 опасность
перегрева
1000.8 998.1
09 20.01 С 4 н/о н/о +30.0 +23.4 68 +41 +41 опасность
перегрева
1001.9 999.2
10 20.01 С 4 н/о н/о +28.8 +23.9 75 +40 +40 очень
душно
1003.1 1000.4
12 20.01 ЮВ 4 н/о н/о +25.4 +23.5 89 +34 +34 очень
душно
1006.0 1003.3
13 20.01 СЗ 1 н/о туман местами н/о +24.9 +23.3 91 +33 +33 очень
душно
1005.7 1003.0 +33.8
15 20.01 Ю 1 н/о н/о +25.1 +23.5 91 +34 +34 очень
душно
1006.1 1003.4
16 20.01 ЮВ 2 н/о {туман} н/о +25.1 +23.5 91 +34 +34 очень
душно
1004.9 1002.2
18 20.01 штиль 0 н/о н/о +24.8 +23.0 90 +33 +33 очень
душно
1002.5 999.8
19 20.01 Ю 2 н/о {туман} н/о +24.8 +23.0 90 +33 +33 очень
душно
1002.5 999.8
21 20.01 Ю 2 н/о н/о +24.6 +22.8 90 +33 +33 очень
душно
1002.6 999.9
22 20.01 Ю 3 н/о н/о +24.9 +23.1 90 +33 +33 очень
душно
1003.4 1000.7
00 21.01 штиль 0 н/о н/о +27.6 +24.4 83 +39 +39 очень
душно
1004.1 1001.4
01 21.01 ЮЗ 2 н/о н/о +30.1 +24.9 74 +43 +43 опасность
перегрева
1004.1 1001.4 +24.7
03 21.01 СЗ 3 н/о н/о +32.6 +23.5 59 +44 +44 опасность
перегрева
1003.3 1000.6
04 21.01 З 3 н/о н/о +33.5 +23.8 57 +45 +45 опасность
перегрева
1002.6 999.9
06 21.01 СЗ 4 н/о н/о +33.2 +23.2 56 +44 +44 опасность
перегрева
1000.2 997.5
07 21.01 ЮЗ 4 н/о туман н/о +23.8 +20.7 83 +30 +30 очень
душно
1001.6 998.9
09 21.01 штиль 0 н/о н/о +24.4 +22.5 89 +32 +32 очень
душно
1001.6 998.9
10 21.01 Ю 2 н/о в посл. час дождь {туман} н/о +24.3 +22.4 89 +32 +32 очень
душно
1002.4 999.7
12 21.01 Ю 3 н/о н/о +24.0 +21.9 88 +31 +31 очень
душно
1003.6 1000.9
13 21.01 Ю 2 н/о {туман} н/о +24.2 +21.7 86 +31 +31 очень
душно
1004.2 1001.5 +34.5
15 21.01 штиль 0 н/о н/о +24.3 +22.4 89 +32 +32 очень
душно
1003.5 1000.8
16 21.01 штиль 0 н/о н/о +24.2 +22.5 90 +32 +32 очень
душно
1002.6 999.9
18 21.01 штиль 0 н/о н/о +23.9 +22.2 90 +31 +31 очень
душно
1002.1 999.4
19 21.01 штиль 0 н/о н/о +23.9 +22.2 90 +31 +31 очень
душно
1002.0 999.3
21 21.01 В 2 н/о н/о +23.9 +22.3 91 +31 +31 очень
душно
1003.3 1000.6
22 21.01 штиль 0 н/о н/о +24.6 +23.0 91 +33 +33 очень
душно
1004.1 1001.4
00 22.01 Ю 2 н/о н/о +27.8 +23.8 79 +38 +38 очень
душно
1004.3 1001.6
01 22.01 ЮЗ 2 н/о н/о +29.5 +23.4 70 +40 +40 очень
душно
1004.5 1001.8 +23.8
03 22.01 ЮЗ 3 н/о н/о +32.6 +23.3 58 +43 +43 опасность
перегрева
1002.7 1000.0
04 22.01 З 4 н/о н/о +34.0 +23.7 55 +45 +45 опасность
перегрева
1001.6 998.9
06 22.01 З 4 н/о н/о +35.2 +23.2 50 +46 +46 опасность
перегрева
999.8 997.1
07 22.01 З 4 н/о н/о +34.8 +24.4 55 +47 +47 опасность
перегрева
999.0 996.3
09 22.01 З 3 н/о н/о +25.3 +20.3 74 +31 +31 очень
душно
1000.1 997.4
10 22.01 СЗ 4 н/о {туман} н/о +24.7 +19.8 74 +30 +30 очень
душно
1001.0 998.3
12 22.01 Ю 1 н/о н/о +24.5 +21.8 85 +31 +31 очень
душно
1002.4 999.7
13 22.01 Ю 2 н/о {туман} н/о +24.4 +22.1 87 +32 +32 очень
душно
1002.6 999.9 +35.9
15 22.01 ЮЗ 1 н/о н/о +25.6 +22.7 84 +34 +34 очень
душно
1003.2 1000.5
16 22.01 З 1 н/о н/о +25.5 +23.2 87 +34 +34 очень
душно
1002.4 999.7
18 22.01 Ю 1 н/о н/о +25.3 +22.4 84 +33 +33 очень
душно
1001.8 999.1
19 22.01 Ю 2 н/о н/о +24.9 +22.2 85 +32 +32 очень
душно
1001.5 998.8
21 22.01 Ю 2 н/о н/о +24.7 +21.4 82 +31 +31 очень
душно
1002.7 1000.0
22 22.01 ЮВ 1 н/о {туман} н/о +25.0 +21.5 81 +32 +32 очень
душно
1003.1 1000.4
00 23.01 Ю 2 н/о н/о +28.3 +22.5 71 +37 +37 очень
душно
1004.0 1001.3
01 23.01 Ю 3 н/о {туман} н/о +30.0 +21.4 60 +38 +38 очень
душно
1003.6 1000.9 +23.8
03 23.01 СЗ 2 н/о н/о +32.8 +21.3 51 +41 +41 опасность
перегрева
1002.1 999.4
04 23.01 ЮЗ 2 н/о н/о +33.7 +22.1 51 +43 +43 опасность
перегрева
1001.3 998.6
06 23.01 З 4 н/о н/о +35.2 +22.5 48 +44 +44 опасность
перегрева
999.2 996.5
07 23.01 СЗ 5 н/о н/о +33.3 +22.4 53 +43 +43 опасность
перегрева
999.2 996.5
09 23.01 З 3 н/о н/о +24.9 +22.6 87 +33 +33 очень
душно
1001.3 998.6
10 23.01 С 2 н/о в посл. час дождь {туман} н/о +24.4 +22.3 88 +32 +32 очень
душно
1001.7 999.0
12 23.01 В 2 н/о н/о +25.1 +23.2 89 +34 +34 очень
душно
1002.9 1000.2
13 23.01 ЮВ 1 н/о {туман} н/о +25.6 +23.7 89 +35 +35 очень
душно
1003.3 1000.6 +35.7
15 23.01 штиль 0 н/о н/о +25.7 +23.7 89 +35 +35 очень
душно
1002.6 999.9
16 23.01 штиль 0 н/о в посл. час дождь {туман} н/о +25.8 +23.8 89 +35 +35 очень
душно
1002.0 999.3
18 23.01 В 1 н/о н/о +25.6 +23.7 89 +35 +35 очень
душно
1001.0 998.3
19 23.01 штиль 0 н/о {туман} н/о +25.2 +23.3 89 +34 +34 очень
душно
1001.0 998.3
21 23.01 штиль 0 н/о н/о +25.3 +23.5 90 +34 +34 очень
душно
1001.5 998.8
22 23.01 штиль 0 н/о н/о +25.7 +23.9 90 +35 +35 очень
душно
1002.7 1000.0
00 24.01 З 2 н/о н/о +28.1 +24.3 80 +39 +39 очень
душно
1002.4 999.7
01 24.01 ЮЗ 2 н/о н/о +29.5 +23.2 69 +40 +40 очень
душно
1002.2 999.5 +23.8
03 24.01 ЮЗ 3 н/о н/о +32.3 +24.1 62 +44 +44 опасность
перегрева
1000.9 998.2
04 24.01 ЮЗ 3 н/о н/о +32.3 +23.5 60 +43 +43 опасность
перегрева
999.7 997.0
06 24.01 СЗ 4 н/о н/о +34.2 +25.0 59 +48 +48 опасность
перегрева
998.4 995.7
07 24.01 З 5 н/о н/о +34.3 +24.5 57 +47 +47 опасность
перегрева
997.3 994.6
09 24.01 З 4 н/о н/о +31.2 +24.6 68 +44 +44 опасность
перегрева
997.8 995.1
10 24.01 З 2 н/о н/о +28.0 +21.1 66 +35 +35 очень
душно
999.3 996.6

 

Местоположение метеостанции Kalumburu (Западная Австралия, Австралия): широта -14.30 долгота 126.65 высота над уровнем моря 24 м.

В архиве по умолчанию представлена погода в Kalumburu за последнюю неделю. Архивные данные за месяц целиком и за предыдущие месяцы, начиная с января 2011 года, Вы можете получить, выбрав интересующий диапазон дат из раскрывающегося списка и нажав кнопку "Ввод!".

Внимание! Время в таблицах - всемирное. Для получения местного времени необходимо прибавить поправку, которая в Kalumburu равна 8 ч.

Смотрите также архив погоды в соседних городах и на ближайших метеорологических станциях:

Погода в Truscott (Западная Австралия, Австралия) (38 км)
Погода в Troughton Island (Западная Австралия, Австралия) (82 км)
Погода в Wyndham Aero (Западная Австралия, Австралия) (209 км)
Погода в Kununurra (Западная Австралия, Австралия) (276 км)
Погода в Port Keats Aero (Северная территория, Австралия) (310 км)
Погода в Argyle Aero (Западная Австралия, Австралия) (323 км)
Погода в Browse Island (Западная Австралия, Австралия) (335 км)
Погода в Adele Island (Западная Австралия, Австралия) (400 км)
Погода в Dum In Mirrie (Северная территория, Австралия) (443 км)
Погода в Fitzroy Crossing Aero (Западная Австралия, Австралия) (447 км)

Пояснения к столбцам:

Ветер - указаны скорость ветра в м/с - средняя за 10 мин, порывы в срок и между сроками (в фигурных скобках) и направление, откуда дует ветер: С - северный, СВ - северо-восточный, В - восточный, ЮВ - юго-восточный, Ю - южный, ЮЗ - юго-западный, З - западный, СЗ - северо-западный.
Видимость - горизонтальная дальность видимости в метрах или километрах. При видимости от 1 до 10 км при отсутствии осадков обычно наблюдается дымка, при ухудшении видимости до 1 км и менее - туман. В сухую погоду видимость может ухудшаться дымом, пылью или мглою.
Явления - указаны атмосферные явления, наблюдавшиеся в срок или в последний час перед сроком; фигурными скобками обозначены явления, наблюдавшиеся между сроками (за 1-3 часа до срока); квадратными скобками обозначены град или гололедные отложения с указанием их диаметра в мм.
Облачность - указаны через наклонную черту общая и нижняя облачность в баллах и высота нижней границы облаков в метрах; квадратными скобками обозначены формы облаков: Ci - перистые, Cs - перисто-слоистые, Cc - перисто-кучевые, Ac - высококучевые, As - высокослоистые, Sc - слоисто-кучевые, Ns - слоисто-дождевые, Cu - кучевые, Cb - кучево-дождевые. Подробнее классификацию облаков см. в Атласе облаков (PDF).
T - Температура воздуха - температура, измеренная на высоте 2 м над землей.
Td - Температура точки росы - температура, при понижении до которой содержащийся в воздухе водяной пар достигнет насыщения.
f - Относительная влажность воздуха - влажноcть воздуха, измеренная на высоте 2 м над землей.
Te - Эффективная температура - температура, которую ощущает одетый по сезону человек в тени. Характеристика душности погоды. При расчете учитывается влияние влажности воздуха и скорости ветра на теплоощущения человека.
Tes - Эффективная температура на солнце - температура, которую ощущает человек, с поправкой на солнечный нагрев. Характеристика знойности погоды. Зависит от высоты солнца над горизонтом, облачности и скорости ветра. Ночью, в пасмурную погоду, а также при ветре 12 м/с и более поправка равна нулю.
P - Атмосферное давление - приведенное к уровню моря атмосферное давление.
Po - Атмосферное давление - измеренное на уровне метеостанции атмосферное давление.
Tmin - Минимальная температура - минимум температуры воздуха на высоте 2 м над землей.
Tmax - Максимальная температура - максимум температуры воздуха на высоте 2 м над землей.
R - Количество осадков - Количество выпавших осадков за период времени, мм. При наведении курсора мыши на число - период времени, за который выпало указанное количество осадков.
R24 - Количество осадков - Количество выпавших осадков за 24 часа, мм.
S - Снежный покров - Высота снежного покрова, см. При наведении курсора мыши на число - состояние снежного покрова и степень покрытия местности в баллах.